Date String (YYYY-MM-DD hh:mm:ss) UTC,Instrument flags,Ambient pressure (hPa),Sample flow (lpm),Bypass flow (lpm),Sample temperature (°C),Ambient temperature (°C),ASC tube jacket temperature (°C),LED temperature (°C),Box temperature (°C),Sample RH (%),Span deviation,Mass concentration (μg/m³),Mass concentration (μg/m³),Mass concentration (μg/m³)
DateTimeUTC,F1_M11,P_M11,Q1_M11,Q2_M11,T1_M11,T2_M11,T3_M11,T4_M11,T5_M11,U1_M11,ZSPAN_M11,X0_M11,X2_M11,X1_M11
2021-11-14 02:00:00,,0827.6,5.00,0.00,28.2,27.4,00.0,37.2,30.0,10.6,0000.0,0004.26,0000.83,0000.54
2021-11-14 02:01:00,,0827.6,5.00,0.00,28.2,27.5,00.0,37.2,30.0,10.7,0000.0,0004.52,0000.90,0000.55
2021-11-14 02:02:00,,0827.7,5.02,0.00,28.2,27.4,00.0,37.2,30.0,10.8,0000.0,0004.62,0000.93,0000.55
2021-11-14 02:03:00,,0827.7,5.00,0.00,28.2,27.4,00.0,37.2,30.0,10.9,0000.0,0003.83,0000.94,0000.57
2021-11-14 02:04:00,,0827.7,4.99,0.00,28.2,27.4,00.0,37.2,29.9,11.0,0000.0,0003.72,0000.94,0000.57
2021-11-14 02:05:00,,0827.9,5.01,0.00,28.2,27.4,00.0,37.2,29.9,11.0,0000.0,0003.59,0000.93,0000.58
2021-11-14 02:06:00,,0827.8,5.01,0.00,28.2,27.4,00.0,37.2,29.9,11.0,0000.0,0003.57,0000.96,0000.58
2021-11-14 02:07:00,,0827.8,5.01,0.00,28.2,27.4,00.0,37.2,30.0,10.9,0000.0,0003.33,0000.98,0000.60
2021-11-14 02:08:00,,0827.7,5.00,0.00,28.2,27.4,00.0,37.2,30.0,10.8,0000.0,0003.43,0000.96,0000.61
2021-11-14 02:09:00,,0827.8,5.00,0.00,28.2,27.4,00.0,37.2,29.9,10.9,0000.0,0003.40,0000.96,0000.61
2021-11-14 02:10:00,,0827.8,5.00,0.00,28.2,27.4,00.0,37.2,29.9,11.0,0000.0,0004.10,0000.96,0000.60
2021-11-14 02:11:00,,0827.9,4.99,0.00,28.2,27.3,00.0,37.2,29.9,10.7,0000.0,0004.51,0000.99,0000.61
2021-11-14 02:12:00,,0827.9,5.01,0.00,28.2,27.3,00.0,37.2,29.9,10.6,0000.0,0004.00,0000.93,0000.62
2021-11-14 02:13:00,,0828.0,4.99,0.00,28.2,27.3,00.0,37.2,29.9,10.7,0000.0,0003.85,0000.89,0000.61
2021-11-14 02:14:00,,0828.0,5.00,0.00,28.2,27.3,00.0,37.2,29.9,10.7,0000.0,0003.76,0000.86,0000.60
2021-11-14 02:15:00,,0827.9,4.99,0.00,28.2,27.3,00.0,37.2,29.9,10.8,0000.0,0003.73,0000.84,0000.60
2021-11-14 02:16:00,,0827.8,5.00,0.00,28.2,27.3,00.0,37.2,29.9,10.7,0000.0,0003.72,0000.84,0000.60
2021-11-14 02:17:00,,0827.9,5.01,0.00,28.2,27.3,00.0,37.2,29.9,10.6,0000.0,0004.08,0000.84,0000.60
2021-11-14 02:18:00,,0828.0,4.99,0.00,28.1,27.2,00.0,37.2,29.9,10.7,0000.0,0004.13,0000.85,0000.59
2021-11-14 02:19:00,,0827.9,5.01,0.00,28.1,27.2,00.0,37.2,29.8,10.9,0000.0,0003.81,0000.87,0000.60
2021-11-14 02:20:00,,0828.1,4.98,0.00,28.1,27.2,00.0,37.2,29.8,10.9,0000.0,0003.70,0000.86,0000.60
2021-11-14 02:21:00,,0828.1,5.00,0.00,28.1,27.2,00.0,37.2,29.7,10.8,0000.0,0003.16,0000.84,0000.60
2021-11-14 02:22:00,,0828.1,5.00,0.00,28.1,27.1,00.0,37.2,29.7,10.9,0000.0,0001.77,0000.81,0000.60
2021-11-14 02:23:00,,0828.0,5.00,0.00,28.1,27.1,00.0,37.2,29.8,11.0,0000.0,0001.79,0000.81,0000.60
2021-11-14 02:24:00,,0828.0,5.00,0.00,28.1,27.2,00.0,37.2,29.8,11.0,0000.0,0001.89,0000.83,0000.60
2021-11-14 02:25:00,,0828.1,5.02,0.00,28.1,27.2,00.0,37.2,29.8,11.1,0000.0,0002.05,0000.86,0000.60
2021-11-14 02:26:00,,0828.1,5.00,0.00,28.1,27.2,00.0,37.2,29.8,11.2,0000.0,0002.05,0000.85,0000.59
2021-11-14 02:27:00,,0828.0,5.00,0.00,28.1,27.2,00.0,37.1,29.8,11.2,0000.0,0002.07,0000.86,0000.60
2021-11-14 02:28:00,,0827.9,5.00,0.00,28.1,27.2,00.0,37.1,29.8,11.2,0000.0,0001.73,0000.83,0000.60
2021-11-14 02:29:00,,0827.9,5.00,0.00,28.1,27.2,00.0,37.1,29.7,10.9,0000.0,0001.35,0000.80,0000.61
2021-11-14 02:30:00,,0828.0,4.99,0.00,28.1,27.2,00.0,37.1,29.8,10.9,0000.0,0001.31,0000.78,0000.60
2021-11-14 02:31:00,,0828.0,5.00,0.00,28.1,27.2,00.0,37.1,29.8,11.1,0000.0,0001.32,0000.78,0000.60
2021-11-14 02:32:00,,0828.0,4.99,0.00,28.1,27.2,00.0,37.1,29.7,11.1,0000.0,0001.39,0000.81,0000.60
2021-11-14 02:33:00,,0828.0,5.01,0.00,28.1,27.2,00.0,37.1,29.7,11.1,0000.0,0001.43,0000.82,0000.61
2021-11-14 02:34:00,,0828.0,5.00,0.00,28.0,27.2,00.0,37.1,29.7,11.1,0000.0,0001.46,0000.84,0000.62
2021-11-14 02:35:00,,0828.0,4.99,0.00,28.0,27.2,00.0,37.1,29.7,11.1,0000.0,0001.43,0000.84,0000.62
2021-11-14 02:36:00,,0828.1,5.01,0.00,28.1,27.2,00.0,37.1,29.7,11.1,0000.0,0001.46,0000.81,0000.62
2021-11-14 02:37:00,,0828.0,5.00,0.00,28.1,27.2,00.0,37.1,29.8,11.1,0000.0,0001.58,0000.84,0000.62
2021-11-14 02:38:00,,0828.0,5.00,0.00,28.1,27.2,00.0,37.1,29.8,11.1,0000.0,0001.56,0000.84,0000.61
2021-11-14 02:39:00,,0828.0,5.00,0.00,28.1,27.2,00.0,37.1,29.8,11.1,0000.0,0001.85,0000.84,0000.61
2021-11-14 02:40:00,,0827.9,5.01,0.00,28.1,27.2,00.0,37.1,29.8,11.1,0000.0,0003.00,0000.85,0000.61
2021-11-14 02:41:00,,0828.0,4.99,0.00,28.1,27.2,00.0,37.1,29.8,11.1,0000.0,0003.69,0000.83,0000.61
2021-11-14 02:42:00,,0827.9,5.00,0.00,28.1,27.2,00.0,37.1,29.8,11.2,0000.0,0004.32,0000.82,0000.61
2021-11-14 02:43:00,,0828.0,5.00,0.00,28.1,27.2,00.0,37.1,29.8,11.0,0000.0,0004.26,0000.79,0000.61
2021-11-14 02:44:00,,0828.0,5.00,0.00,28.1,27.2,00.0,37.1,29.8,11.1,0000.0,0004.24,0000.79,0000.61
2021-11-14 02:45:00,,0828.0,5.00,0.00,28.0,27.2,00.0,37.1,29.7,11.2,0000.0,0004.21,0000.77,0000.60
2021-11-14 02:46:00,,0828.0,5.00,0.00,28.0,27.2,00.0,37.1,29.7,11.2,0000.0,0004.26,0000.76,0000.60
2021-11-14 02:47:00,,0828.0,4.99,0.00,28.0,27.1,00.0,37.1,29.7,11.1,0000.0,0004.26,0000.76,0000.60
2021-11-14 02:48:00,,0828.0,5.00,0.00,28.0,27.1,00.0,37.1,29.7,11.0,0000.0,0004.12,0000.75,0000.61
2021-11-14 02:49:00,,0828.1,5.00,0.00,28.0,27.2,00.0,37.1,29.8,11.0,0000.0,0004.12,0000.74,0000.61
2021-11-14 02:50:00,,0828.0,5.01,0.00,28.1,27.2,00.0,37.1,29.8,11.0,0000.0,0004.18,0000.78,0000.61
2021-11-14 02:51:00,,0828.0,5.00,0.00,28.0,27.2,00.0,37.1,29.8,11.0,0000.0,0002.88,0000.80,0000.61
2021-11-14 02:52:00,,0828.1,4.99,0.00,28.1,27.2,00.0,37.1,29.8,11.0,0000.0,0002.64,0000.85,0000.62
2021-11-14 02:53:00,,0828.0,5.01,0.00,28.1,27.2,00.0,37.1,29.8,10.9,0000.0,0002.55,0000.88,0000.63
2021-11-14 02:54:00,,0828.0,4.99,0.00,28.1,27.2,00.0,37.1,29.8,11.0,0000.0,0002.57,0000.89,0000.62
2021-11-14 02:55:00,,0828.0,5.01,0.00,28.1,27.2,00.0,37.1,29.8,11.0,0000.0,0003.31,0000.93,0000.61
2021-11-14 02:56:00,,0828.0,4.99,0.00,28.0,27.2,00.0,37.1,29.7,11.0,0000.0,0003.70,0000.92,0000.61
2021-11-14 02:57:00,,0828.0,5.00,0.00,28.0,27.1,00.0,37.1,29.7,10.9,0000.0,0003.75,0000.97,0000.61
2021-11-14 02:58:00,,0828.1,5.01,0.00,28.0,27.1,00.0,37.1,29.7,10.7,0000.0,0003.59,0000.98,0000.62
2021-11-14 02:59:00,,0828.2,5.01,0.00,28.0,27.1,00.0,37.1,29.8,10.9,0000.0,0003.66,0001.00,0000.62
